TimeCST,TemperatureF,Dew PointF,Humidity,Sea Level PressureIn,VisibilityMPH,Wind Direction,Wind SpeedMPH,Gust SpeedMPH,PrecipitationIn,Events,Conditions,WindDirDegrees,DateUTC
3:00 AM,82,79,87,29.92,12,Calm,Calm,,,,Partly Cloudy,,2013-08-21 09:00:00
5:00 AM,82.4,78.8,89,29.92,6.2,Calm,Calm,-,N/A,,Mostly Cloudy,0,2013-08-21 11:00:00
6:00 AM,78,77,94,29.93,12,Calm,Calm,,,,Partly Cloudy,,2013-08-21 12:00:00
6:00 AM,78.8,77.0,94,29.92,6.2,Calm,Calm,-,N/A,,Partly Cloudy,0,2013-08-21 12:00:00
7:00 AM,82.4,78.8,89,29.92,6.2,East,5.8,-,N/A,,Scattered Clouds,90,2013-08-21 13:00:00
8:00 AM,86.0,78.8,79,29.92,6.2,East,5.8,-,N/A,,Mostly Cloudy,90,2013-08-21 14:00:00
9:00 AM,90,78,59,29.95,14,East,5.8,,,,Partly Cloudy,100,2013-08-21 15:00:00
9:00 AM,89.6,77.0,66,29.95,6.2,East,5.8,-,N/A,,Mostly Cloudy,100,2013-08-21 15:00:00
10:00 AM,87.8,77.0,70,29.95,6.2,East,6.9,-,N/A,,Mostly Cloudy,80,2013-08-21 16:00:00
11:00 AM,89.6,77.0,66,29.95,6.2,ENE,8.1,-,N/A,,Mostly Cloudy,70,2013-08-21 17:00:00
12:00 PM,89,75,56,29.95,14,ENE,9.2,,,,Partly Cloudy,70,2013-08-21 18:00:00
12:00 PM,89.6,75.2,62,29.94,6.2,ENE,9.2,-,N/A,,Mostly Cloudy,70,2013-08-21 18:00:00
1:00 PM,89.6,77.0,66,29.92,6.2,East,8.1,-,N/A,,Mostly Cloudy,80,2013-08-21 19:00:00
2:00 PM,89.6,77.0,66,29.91,6.2,ENE,8.1,-,N/A,,Mostly Cloudy,60,2013-08-21 20:00:00
3:00 PM,88,77,62,29.88,14,East,6.9,,,,Partly Cloudy,80,2013-08-21 21:00:00
3:00 PM,87.8,77.0,70,29.88,6.2,East,6.9,-,N/A,,Mostly Cloudy,80,2013-08-21 21:00:00
4:00 PM,87.8,77.0,70,29.87,6.2,East,8.1,-,N/A,,Mostly Cloudy,90,2013-08-21 22:00:00
5:00 PM,86.0,77.0,74,29.87,6.2,East,5.8,-,N/A,,Mostly Cloudy,90,2013-08-21 23:00:00
6:00 PM,84.2,77.0,79,29.88,6.2,East,3.5,-,N/A,,Mostly Cloudy,100,2013-08-22 00:00:00
9:00 PM,82,77,82,29.94,12,ESE,3.5,,,,Scattered Clouds,110,2013-08-22 03:00:00